Location: Newark
(51.0500°N, 12.4500°E)
Time: 00:59:02
(UTC+00:00)

Vanguard 1 - Pass Details

Date: 18 February 2020
Orbit: 649 x 3834 km, 34.2° (Epoch: 28 March)

Event Time Altitude Azimuth Distance (km) Brightness Sun altitude
Rises 09:18:12 0° 236° (WSW) 7,508 14.6 21.5°
Reaches altitude 10° 09:24:29 10° 229° (SW) 6,078 14.3 22.0°
Maximum altitude 09:38:40 33° 175° (S) 3,264 14.3 23.1°
Drops below altitude 10° 09:47:25 10° 116° (ESE) 3,736 14.0 23.8°
Sets 09:50:14 0° 106° (ESE) 4,372 14.0 24.0°
